W5UOK-13 Weather Reports


Display with metric or nautical units.
time (UTC)temp
F
wind
direction
speed
MPH
gust
MPH
rain 1hr
in
rain 24hr
in
rain mn
in
humidity
%
barometer
mb
20260509173057 84 205 1.0 8.0 0.00 0.01 0.01 70 1011.0
20260509171601 84 268 2.0 9.0 0.00 0.01 0.01 72 1011.0
20260509170048 83 0 1.0 10.0 0.00 0.01 0.01 76 1011.0
20260509164551 81 218 1.0 8.0 0.00 0.01 0.01 82 1011.3
20260509163052 79 186 3.0 7.0 0.00 0.01 0.01 83 1011.6
20260509161547 78 237 2.0 7.0 0.00 0.01 0.01 85 1011.8
20260509160048 78 290 2.0 7.0 0.00 0.01 0.01 85 1011.8
20260509154550 78 160 2.0 6.0 0.00 0.01 0.01 86 1011.7
20260509153052 77 247 3.0 6.0 0.00 0.01 0.01 90 1011.5
20260509151543 75 145 0.0 2.0 0.00 0.01 0.01 95 1011.4
20260509150044 74 209 0.0 0.0 0.00 0.01 0.01 96 1011.2
20260509144551 73 0 0.0 0.0 0.00 0.01 0.01 96 1011.2
20260509143050 73 0 0.0 1.0 0.00 0.01 0.01 96 1011.3
20260509141551 72 256 0.0 3.0 0.00 0.01 0.01 96 1011.5
20260509140046 72 302 0.0 2.0 0.00 0.01 0.01 96 1011.7
20260509134556 72 261 1.0 3.0 0.00 0.01 0.01 96 1011.5
20260509133045 72 281 1.0 2.0 0.00 0.01 0.01 96 1011.0
20260509131602 72 222 1.0 5.0 0.00 0.01 0.01 96 1010.2
20260509130059 72 117 2.0 5.0 0.01 0.01 0.01 96 1010.2
20260509124549 72 153 1.0 4.0 0.01 0.01 0.01 96 1009.8
20260509123051 71 166 3.0 7.0 0.01 0.01 0.01 96 1009.9
20260509121550 71 123 2.0 7.0 0.01 0.01 0.01 96 1009.7
20260509120047 71 150 1.0 9.0 0.00 0.00 0.00 96 1009.7
20260509114604 71 148 1.0 4.0 0.00 0.00 0.00 96 1010.0
20260509113053 71 165 1.0 4.0 0.00 0.00 0.00 96 1010.3
20260509111549 71 132 0.0 2.0 0.00 0.00 0.00 96 1010.3
20260509110103 71 0 0.0 0.0 0.00 0.00 0.00 96 1010.6
20260509104557 71 0 0.0 3.0 0.00 0.00 0.00 96 1010.8
20260509103051 71 270 0.0 1.0 0.00 0.00 0.00 96 1010.7
20260509101549 71 202 1.0 3.0 0.00 0.00 0.00 95 1010.3
20260509100044 71 0 0.0 4.0 0.00 0.00 0.00 95 1010.2
20260509094549 71 157 0.0 2.0 0.00 0.00 0.00 95 1010.0
20260509093049 71 0 0.0 2.0 0.00 0.00 0.00 95 1010.5
20260509091546 71 0 0.0 2.0 0.00 0.00 0.00 95 1011.0
20260509090100 71 0 0.0 0.0 0.00 0.00 0.00 95 1011.0
20260509084557 71 0 0.0 0.0 0.00 0.00 0.00 95 1011.0
20260509083049 71 0 0.0 0.0 0.00 0.00 0.00 94 1011.0
20260509081546 71 0 0.0 7.0 0.00 0.00 0.00 94 1010.9
20260509080043 71 138 0.0 1.0 0.00 0.00 0.00 94 1011.0
20260509074552 71 0 0.0 2.0 0.00 0.00 0.00 93 1011.4
20260509073047 71 0 0.0 2.0 0.00 0.00 0.00 93 1011.6
20260509071547 71 0 0.0 2.0 0.00 0.00 0.00 93 1011.6
20260509070049 71 306 0.0 0.0 0.00 0.00 0.00 92 1011.7
20260509064545 71 0 0.0 0.0 0.00 0.00 0.00 92 1011.5
20260509063047 71 0 0.0 2.0 0.00 0.00 0.00 91 1011.4
20260509061554 71 0 0.0 3.0 0.00 0.00 0.00 92 1011.0
20260509060048 71 175 2.0 6.0 0.00 0.00 0.00 92 1010.5
20260509054609 71 0 2.0 9.0 0.00 0.00 0.00 92 1010.3
20260509053140 71 201 3.0 9.0 0.00 0.00 0.00 92 1010.4
20260509051554 71 146 1.0 9.0 0.00 0.00 0.00 92 1010.7
20260509050052 71 0 2.0 7.0 0.00 0.00 0.00 92 1010.9
20260509044549 71 157 1.0 3.0 0.00 0.00 0.00 91 1010.7
20260509043056 71 128 1.0 6.0 0.00 0.00 0.00 91 1010.6
20260509041548 71 156 1.0 4.0 0.00 0.00 0.00 91 1010.3
20260509040111 71 167 2.0 8.0 0.00 0.00 0.00 91 1010.2
20260509034609 71 179 1.0 5.0 0.00 0.00 0.00 91 1010.2
20260509033054 71 119 2.0 5.0 0.00 0.00 0.00 90 1009.9
20260509031552 72 165 1.0 4.0 0.00 0.00 0.00 90 1009.8
20260509030101 72 150 1.0 4.0 0.00 0.00 0.00 89 1009.8
20260509024546 72 119 1.0 3.0 0.00 0.00 0.00 88 1009.5
20260509023053 72 149 1.0 4.0 0.00 0.00 0.00 88 1009.7
20260509021556 73 205 0.0 5.0 0.00 0.00 0.00 87 1009.5
20260509020053 73 115 1.0 6.0 0.00 0.00 0.00 86 1009.5
20260509014546 73 137 1.0 4.0 0.00 0.00 0.00 86 1009.5
20260509013104 73 140 1.0 4.0 0.00 0.00 0.00 86 1009.4
20260509011549 74 123 1.0 4.0 0.00 0.00 0.00 85 1009.5
20260509010048 74 153 0.0 3.0 0.00 0.00 0.00 85 1009.6
20260509004547 74 134 1.0 3.0 0.00 0.00 0.00 84 1009.3
20260509003111 75 91 1.0 7.0 0.00 0.00 0.00 83 1009.2
20260509001546 75 107 2.0 9.0 0.00 0.00 0.00 82 1009.2
20260509000106 76 130 3.0 8.0 0.00 0.00 0.00 81 1009.3
20260508234551 76 110 2.0 10.0 0.00 0.00 0.00 80 1009.5
20260508233054 78 158 4.0 11.0 0.00 0.00 0.00 77 1009.4
20260508231549 79 123 4.0 8.0 0.00 0.00 0.00 76 1009.6
20260508230048 78 94 1.0 7.0 0.00 0.00 0.00 78 1009.7
20260508224603 77 115 1.0 4.0 0.00 0.00 0.00 78 1009.9
20260508223052 78 0 0.0 2.0 0.00 0.00 0.00 77 1010.0
20260508221551 79 109 0.0 2.0 0.00 0.00 0.00 76 1010.0
20260508220049 79 48 0.0 2.0 0.00 0.00 0.00 73 1010.2
20260508214553 79 0 0.0 2.0 0.00 0.00 0.00 76 1010.2
20260508213045 79 0 0.0 2.0 0.00 0.00 0.00 73 1010.4
20260508211549 79 0 0.0 2.0 0.00 0.00 0.00 74 1010.5
20260508210050 78 129 1.0 8.0 0.00 0.00 0.00 73 1010.6
20260508204548 78 154 4.0 9.0 0.00 0.00 0.00 73 1010.7
20260508203053 77 133 2.0 8.0 0.00 0.00 0.00 75 1010.8
20260508201557 77 153 3.0 7.0 0.00 0.00 0.00 74 1011.0
20260508200058 77 0 1.0 6.0 0.00 0.00 0.00 74 1011.3
20260508194550 77 85 1.0 6.0 0.00 0.00 0.00 75 1011.4
20260508193100 77 165 1.0 3.0 0.00 0.00 0.00 74 1011.8
20260508191551 77 51 1.0 2.0 0.00 0.00 0.00 71 1011.9
20260508190055 76 82 1.0 5.0 0.00 0.00 0.00 74 1012.0
20260508184601 74 49 0.0 5.0 0.00 0.00 0.00 78 1011.9
20260508183100 72 85 2.0 6.0 0.00 0.00 0.00 79 1012.2
20260508181551 70 60 1.0 4.0 0.00 0.00 0.00 82 1012.3
20260508180050 68 0 0.0 3.0 0.00 0.00 0.00 83 1012.8
20260508174602 68 26 1.0 2.0 0.00 0.00 0.00 84 1013.2